Regional Weather Roundup
Issued by NWS

Home | Current Version | Previous Version | Text Only | Print | Product List | Glossary On
Versions: 1 2 3 4 5 6 7 8 9 10 11 12 13 14 15 16 17 18 19 20 21 22 23 24 25 26 27 28 29 30 31 32 33 34 35 36 37 38 39 40 41 42 43 44 45 46 47 48 49 50
000
ASUS43 KMPX 291501
RWRMN
WEATHER ROUNDUP FOR MINNESOTA
NATIONAL WEATHER SERVICE TWIN CITIES/CHANHASSEN MN
1000 AM CDT SAT AUG 29 2015


NOTE: "FAIR" INDICATES FEW OR NO CLOUDS BELOW 12,000 FEET WITH NO
SIGNIFICANT WEATHER AND/OR OBSTRUCTIONS TO VISIBILITY. N/A MEANS
CURRENT SKY AND/OR WEATHER CONDITIONS ARE NOT AVAILABLE.

MNZ060>063-068>070-291600-
   Twin Cities Metro

CITY           SKY/WX    TMP DP  RH WIND       PRES   REMARKS
TWIN CITIES    CLOUDY    59  57  93 CALM      30.07S FOG
ST PAUL        CLOUDY    59  57  93 CALM      30.08R FOG
CRYSTAL        MOSUNNY   64  57  78 S5        30.06R
BLAINE         MOSUNNY   64  61  88 CALM      30.07  FOG
LAKEVILLE      CLOUDY    57  57 100 CALM      30.08R FOG
EDEN PRAIRIE   CLOUDY    59  57  93 CALM      30.06S FOG
SOUTH ST PAUL  CLOUDY    59  57  95 CALM      30.08R FOG
LAKE ELMO      CLOUDY    57  57 100 SW3       30.09R FOG
$$
MNZ001>005-007-008-013>017-022>024-027-028-291600-
   Northwest Minnesota

CITY           SKY/WX    TMP DP  RH WIND       PRES   REMARKS
BEMIDJI        SUNNY     66  61  82 S9        29.99R
HALLOCK        FOG       66  64  94 SE9       29.91S VSB 1/2
ROSEAU         HAZE      66  61  82 S5        29.95S VSB 3/4
WARROAD        FOG       66  63  88 S5        29.96R VSB 1/4
THIEF RVR FALL CLOUDY   N/A N/A N/A S10       29.94R
CROOKSTON      SUNNY     66  64  94 SW10      29.94S
FOSSTON        SUNNY     66  61  82 S13G20    29.97S
DETROIT LAKES  SUNNY     66  61  82 S9        30.00S
MOORHEAD       SUNNY     66  61  82 S12       29.97R
PARK RAPIDS    SUNNY     66  58  75 S10       30.02S
MAHNOMEN       FAIR      67  62  84 S12       29.97S
$$
MNZ006-009>011-018-025>026-291600-
   North Central Minnesota

CITY           SKY/WX    TMP DP  RH WIND       PRES   REMARKS
BAUDETTE       CLOUDY    66  63  90 S3        29.97R
FLAG ISLAND    FOG       64  63  94 CALM      29.94S VSB<1/4
INTL FALLS     CLOUDY    69  63  81 SW6       29.98S
WASKISH        CLOUDY    64  63  94 S5        29.98S
BIG FORK       CLOUDY    66  61  82 S6        30.01R
LONGVILLE      MOSUNNY   66  59  77 S6        30.02S
GRAND RAPIDS     N/A     63  55  77 S6        30.03S
CRANE LAKE     CLOUDY    64  61  88 S5        30.01S
COOK           CLOUDY    64  59  82 SW6       30.02S
WALKER         FAIR      64  58  82 SW7       30.00S
$$
MNZ012-019>021-037-291600-
   Northeast Minnesota

CITY           SKY/WX    TMP DP  RH WIND       PRES   REMARKS
DULUTH         CLOUDY    64  56  75 W9        30.04R
ELY            CLOUDY    61  57  88 SW8       30.03R
HIBBING        CLOUDY    63  57  81 VRB5      30.03S
EVELETH        PTSUNNY   63  57  82 SW8       30.04R
DULUTH HARBOR  CLOUDY    63  59  88 SW8       30.03S
TWO HARBORS    CLOUDY    70  63  78 W10       30.01R
SILVER BAY     CLOUDY    70  61  73 SW3       30.00R
GRAND MARAIS     N/A     54  51  90 CALM      29.98R
G MARAIS ARPRT PTSUNNY   64  57  77 W7        30.02S
$$
MNZ029>031-032-039>041-046>048-054>057-064-291600-
   West Central Minnesota

CITY           SKY/WX    TMP DP  RH WIND       PRES   REMARKS
FERGUS FALLS   SUNNY     66  63  88 S13       30.00S
WHEATON        SUNNY     64  61  88 SE12      30.02S
MORRIS         SUNNY     64  61  88 S12       30.03S
ALEXANDRIA     SUNNY     64  58  80 S12       30.06S
ELBOW LAKE     FAIR      64  59  84 S17       30.02S
WADENA         SUNNY     64  59  82 S8        30.02S
GLENWOOD       MOSUNNY   63  57  82 S9        30.06F
APPLETON         N/A     64  57  77 S7        30.04S
BENSON         SUNNY     63  57  82 S7        30.06R
ORTONVILLE     SUNNY     63  57  82 SE6       30.03S
MADISON        SUNNY     63  59  88 S5        30.04S
WILLMAR        CLOUDY    59  59 100 CALM      30.09R FOG
$$
MNZ033>034-036-042>043-049>051-058-059-291600-
   Central Minnesota

CITY           SKY/WX    TMP DP  RH WIND       PRES   REMARKS
ST CLOUD       MOSUNNY   62  58  86 S8        30.06S
SAUK CENTRE    PTSUNNY   61  57  88 S9        30.07S
PAYNESVILLE    MOSUNNY   61  58  88 S3        30.08S
AITKIN         CLOUDY    64  55  72 S8        30.03S
PINE RIVER     MOSUNNY   63  57  82 S6        30.06S
BRAINERD       CLOUDY    61  57  87 SW8       30.05S
STAPLES        SUNNY     63  57  82 S9        30.03F
LONG PRAIRIE   CLOUDY    59  55  88 S7        30.06S
LITTLE FALLS   CLOUDY    61  55  82 S6        30.06S
LITCHFIELD     FOG       59  59 100 CALM      30.08S VSB 1/2
BUFFALO        CLOUDY    58  56  91 CALM      30.08R FOG
MAPLE LAKE     PTSUNNY   62  61  97 CALM      30.08R FOG
$$
MNZ037-044-045-052-053-291600-
   East Central Minnesota

CITY           SKY/WX    TMP DP  RH WIND       PRES   REMARKS
PRINCETON      SUNNY     63  59  88 S3        30.07S
MORA           SUNNY     61  55  82 SW3       30.07F
CAMBRIDGE      SUNNY     64  54  68 SW3       30.05S
RUSH CITY      MOSUNNY   63  58  83 W3        30.06F
MOOSE LAKE     CLOUDY    61  55  82 SW7       30.03F
HINCKLEY       CLOUDY    63  59  88 S5        30.06F
CLOQUET        CLOUDY    64  55  72 SW8       30.04S
MCGREGOR       CLOUDY    63  57  82 SW8       30.05S
$$
MNZ071>073-080-081-089-090-097-098-291600-
   Southwest Minnesota

CITY           SKY/WX    TMP DP  RH WIND       PRES   REMARKS
MONTEVIDEO     SUNNY     66  63  88 S3        30.07S
GRANITE FALLS  SUNNY     60  59  96 SE5       30.08S
CANBY          SUNNY     64  61  88 CALM      30.06S
MARSHALL       SUNNY     64  55  72 SE5       30.07R
REDWOOD FALLS  FOG       57  56  96 SE5       30.07S VSB 1/4
OLIVIA         FOG       54  54 100 SE5       30.07S VSB 1/4
PIPESTONE      MOSUNNY   63  61  94 CALM      30.07R
WINDOM         CLOUDY    57  57 100 CALM      30.09R FOG
WORTHINGTON    CLOUDY    57  54  88 CALM      30.08S VSB 1
JACKSON        CLOUDY    59  59 100 CALM      30.09R FOG
TRACY          SUNNY     64  59  83 CALM      30.08R
SLAYTON        SUNNY     61  61  98 CALM      30.08S
$$
MNZ065>067-074>077-082>085-091>093-291600-
   South Central Minnesota

CITY           SKY/WX    TMP DP  RH WIND       PRES   REMARKS
MANKATO        CLOUDY    57  55  94 CALM      30.08S VSB 1
NEW ULM        FOG       57  57 100 CALM      30.08S VSB 1/4
ST JAMES       FOG       57  57 100 CALM      30.09F VSB 1/2
FAIRMONT       CLOUDY    57  54  88 N7        30.08S VSB 1
GLENCOE        FOG       58  58 100 CALM      30.07S VSB 1/4
FARIBAULT      CLOUDY    61  57  88 CALM      30.07S FOG
OWATONNA       CLOUDY    59  57  94 CALM      30.07F FOG
WASECA         CLOUDY    55  55 100 MISG      30.09S FOG
ALBERT LEA     CLOUDY    61  59  94 CALM      30.07S FOG
$$
MNZ078>079-086>088-094>096-291600-
   Southeast Minnesota

CITY           SKY/WX    TMP DP  RH WIND       PRES   REMARKS
ROCHESTER      CLOUDY    61  60  97 E6        30.06F FOG
RED WING       CLOUDY    61  57  88 CALM      30.05S
STANTON        CLOUDY    59  58  94 CALM      30.06S FOG
DODGE CENTER   CLOUDY    59  57  94 CALM      30.06S FOG
WINONA         CLOUDY    61  57  88 CALM      30.05S
AUSTIN         CLOUDY    63  61  94 N3        30.06S
PRESTON        CLOUDY    59  58  96 CALM      30.05F FOG
$$
ABBREVIATIONS USED IN REMARKS
   TC - TEMPERATURES IN CELSIUS
  WCI - WIND CHILL INDEX
   HX - HEAT INDEX
  VSB - VISIBILITY
$$



USA.gov is the U.S. government's official web portal to all federal, state and local government web resources and services.